Regional Weather Roundup
Issued by NWS

Home | Current Version | Previous Version | Graphics & Text | Print | Product List | Glossary On
Versions: 1 2 3 4 5 6 7 8 9 10 11 12 13 14 15 16 17 18 19 20 21 22 23 24 25 26 27 28 29 30 31 32 33 34 35 36 37 38 39 40 41 42 43 44 45 46 47 48 49 50
000
ASUS43 KDMX 051407
RWRIA

WEATHER ROUNDUP FOR IOWA
NATIONAL WEATHER SERVICE DES MOINES IA
800 AM CST THU MAR 05 2015

NOTE: "FAIR" INDICATES FEW OR NO CLOUDS BELOW 12,000 FEET WITH NO
SIGNIFICANT WEATHER AND/OR OBSTRUCTIONS TO VISIBILITY.

* - THESE STATIONS ARE NOT NWS STATIONS...THUS NOT UNDER NWS
QUALITY CONTROL.  THEY ALSO DO NOT REPORT WEATHER SUCH
AS PRECIPITATION OR FOG.

IAZ001>003-012>014-020>022-031>034-043>046-051500-
   NORTHWEST IOWA

CITY           SKY/WX    TMP DP  RH WIND       PRES   REMARKS
CARROLL *      SUNNY      0  -9  65 W6        30.53R WCI -12
CHEROKEE *     MOSUNNY   -8 -11  84 CALM      30.52R
DENISON *      SUNNY     -2  -8  78 E3        30.51R
LE MARS *      SUNNY     -2  -8  78 CALM      30.52R
ORANGE CITY *  SUNNY     -2  -8  78 CALM      30.47R
SHELDON *      SUNNY     -4  -9  77 CALM      30.47R
SIOUX CITY     MOSUNNY    1  -5  75 CALM      30.53R
SPENCER        SUNNY     -2 -10  69 CALM      30.49R
STORM LAKE *   SUNNY     -4  -9  77 W5        30.49R WCI -15
$$

IAZ055>058-069>071-079>083-090>094-051500-
   SOUTHWEST IOWA

CITY           SKY/WX    TMP DP  RH WIND       PRES   REMARKS
ATLANTIC *     SUNNY      1  -6  71 CALM      30.54R
AUDUBON *      SUNNY      0  -8  71 CALM      30.52R
CLARINDA *     SUNNY      5   0  78 CALM      30.59R
COUNCIL BLFS * SUNNY      7   0  72 CALM      30.52R
CRESTON *      SUNNY      1  -6  71 NW6       30.53R WCI -10
HARLAN  *      SUNNY      1  -6  71 CALM      30.57R
LAMONI         SUNNY      5  -3  69 N7        30.53R WCI  -7
RED OAK *      SUNNY      3   0  85 CALM      30.57R
SHENANDOAH *   SUNNY      3  -2  78 CALM      30.58R
$$

IAZ047>049-059>061-072>074-084-051500-
   CENTRAL IOWA

CITY           SKY/WX    TMP DP  RH WIND       PRES   REMARKS
AMES           SUNNY      1  -7  68 NW6       30.55R WCI -10
ANKENY *       SUNNY      3  -8  60 N8        30.57R WCI -10
CHARITON *     SUNNY      5  -6  61 N7        30.54R WCI  -7
DES MOINES     SUNNY      4  -5  66 NW6       30.56R WCI  -7
GRINNELL*      SUNNY     -2  -8  78 NW5       30.54R WCI -12
KNOXVILLE *    SUNNY      3  -6  66 NW6       30.54R WCI  -8
MARSHALLTOWN   MOSUNNY   -8 -13  78 NW7       30.54R WCI -23
PELLA *        SUNNY      3  -2  78 NW5       30.57R WCI  -6
PERRY *          N/A      1  -4  78 W5        30.56R WCI  -8
$$

IAZ004>006-015-016-023>025-035-036-051500-
   NORTH CENTRAL IOWA

CITY           SKY/WX    TMP DP  RH WIND       PRES   REMARKS
ALGONA *       SUNNY     -2  -2 100 W8        30.51R WCI -17
CLARION *      SUNNY     -2  -8  78 W6        30.52R WCI -14
ESTHERVILLE    SUNNY     -4 -10  75 W7        30.48R WCI -18
FORT DODGE *   SUNNY     -2  -9  71 CALM      30.53R
MASON CITY     MOSUNNY   -9 -14  78 W6        30.51R WCI -22
FOREST CITY *  SUNNY     -6 -13  71 W3        30.50R
IOWA FALLS *     N/A     -8 -13  77 W6        30.53R WCI -21
$$

IAZ007>011-017>019-026>030-037>042-050>054-066-051500-
   NORTHEAST IOWA

CITY           SKY/WX    TMP DP  RH WIND       PRES   REMARKS
CEDAR RAPIDS   SUNNY     -6 -11  79 NW7       30.52R WCI -20
CHARLES CITY * SUNNY     -9 -17  70 W5        30.51R WCI -21
CLINTON *      SUNNY     -9 -15  77 W7        30.53R WCI -24
DECORAH *      SUNNY     -6 -15  65 W5        30.48R WCI -17
DUBUQUE        SUNNY     -3 -11  68 N7        30.47R WCI -16
MONTICELLO *   SUNNY     -8 -15  71 W6        30.52R WCI -21
OELWEIN *      SUNNY     -9 -17  70 NW8       30.51R WCI -26
WATERLOO       MOSUNNY   -6 -12  75 NW5       30.54R WCI -17
$$

IAZ064-065-067-068-078-051500-
   EAST CENTRAL IOWA

CITY           SKY/WX    TMP DP  RH WIND       PRES   REMARKS
DAVENPORT      SUNNY     -4 -11  72 W9        30.52R WCI -20
IOWA CITY      SUNNY      0  -8  69 NW14      30.56R WCI -19
MT. PLEASANT * SUNNY      3  -6  66 NW10      30.54R WCI -12
MUSCATINE *    SUNNY      3  -6  66 NW12      30.57R WCI -13
QUAD CITIES    SUNNY      2  -7  66 NW9       30.53R WCI -13
$$

IAZ062-063-075>077-085>089-095>099-051500-
   SOUTHEAST IOWA

CITY           SKY/WX    TMP DP  RH WIND       PRES   REMARKS
BURLINGTON     SUNNY      3  -5  69 NW7       30.53R WCI  -9
FAIRFIELD *    SUNNY      3  -6  66 NW10      30.55R WCI -12
FORT MADISON * SUNNY      3  -4  72 NW9       30.54R WCI -11
KEOKUK *       MOSUNNY    7  -4  61 NW8       30.54R WCI  -6
OSKALOOSA *      N/A      3  -4  72 NW10      30.55S WCI -12
CENTERVILLE *  SUNNY      5  -2  72 NW8       30.54R WCI  -8
OTTUMWA        SUNNY      4  -5  66 NW10      30.55R WCI -11
WASHINGTON *   SUNNY      3  -4  72 NW15      30.54R WCI -15
$$

ABBREVIATIONS USED IN REMARKS
   TC - TEMPERATURES IN CELSIUS
  WCI - WIND CHILL INDEX
   HX - HEAT INDEX
  VSB - VISIBILITY
$$



USA.gov is the U.S. government's official web portal to all federal, state and local government web resources and services.